DAL714 KLAX-KSFO

Flight info

Callsign DAL714
Flight time 0h 50m
Altitude 32000
Route SUMMR2 STOKD SERFR SERFR4
Aircraft A321/M-SDE3FGHIRWY/LB1

Departure

Time 2026-04-21 03:15
Airport Los Angeles International Airport (KLAX)

Arrival

Time 2026-04-21 04:06
Airport San Francisco International Airport (KSFO)
Time Latitude Longitude Altitude Speed Heading
2026-04-21 02:53 33.94669 -118.40498 122 ft 0 kts 124°
2026-04-21 03:06 33.94673 -118.40504 126 ft 4 kts 122°
2026-04-21 03:06 33.94684 -118.40532 121 ft 4 kts 99°
2026-04-21 03:06 33.94685 -118.40552 121 ft 4 kts 70°
2026-04-21 03:07 33.94673 -118.40570 120 ft 3 kts 356°
2026-04-21 03:07 33.94670 -118.40570 120 ft 0 kts 353°
2026-04-21 03:09 33.94697 -118.40574 124 ft 7 kts 353°
2026-04-21 03:10 33.94743 -118.40580 124 ft 6 kts 353°
2026-04-21 03:10 33.94782 -118.40587 123 ft 7 kts 348°
2026-04-21 03:10 33.94848 -118.40594 122 ft 11 kts 24°
2026-04-21 03:10 33.94874 -118.40523 126 ft 9 kts 84°
2026-04-21 03:11 33.94880 -118.40450 123 ft 10 kts 83°
2026-04-21 03:11 33.94891 -118.40339 122 ft 15 kts 83°
2026-04-21 03:11 33.94904 -118.40223 122 ft 13 kts 83°
2026-04-21 03:11 33.94915 -118.40121 123 ft 12 kts 83°
2026-04-21 03:12 33.94924 -118.40031 125 ft 10 kts 83°
2026-04-21 03:12 33.94938 -118.39945 123 ft 13 kts 65°
2026-04-21 03:12 33.95010 -118.39916 122 ft 11 kts 342°
2026-04-21 03:12 33.95038 -118.39983 124 ft 9 kts 264°
2026-04-21 03:13 33.95037 -118.39996 123 ft 0 kts 263°
2026-04-21 03:14 33.95012 -118.40240 124 ft 64 kts 263°
2026-04-21 03:15 33.94931 -118.41013 124 ft 120 kts 263°
2026-04-21 03:15 33.94809 -118.42192 133 ft 161 kts 262°
2026-04-21 03:15 33.94667 -118.43526 677 ft 156 kts 262°
2026-04-21 03:15 33.94532 -118.44802 1349 ft 152 kts 263°
2026-04-21 03:16 33.94404 -118.46066 1923 ft 153 kts 264°
2026-04-21 03:16 33.94287 -118.47396 2225 ft 168 kts 266°
2026-04-21 03:16 33.94226 -118.48857 2529 ft 181 kts 268°
2026-04-21 03:16 33.94189 -118.50441 2754 ft 198 kts 268°
2026-04-21 03:17 33.94125 -118.52159 3008 ft 214 kts 266°
2026-04-21 03:17 33.94007 -118.54048 3235 ft 238 kts 265°
2026-04-21 03:17 33.93847 -118.56106 3659 ft 256 kts 264°
2026-04-21 03:17 33.93663 -118.58275 4363 ft 261 kts 262°
2026-04-21 03:18 33.93466 -118.60462 5149 ft 264 kts 262°
2026-04-21 03:18 33.93279 -118.62675 5930 ft 267 kts 262°
2026-04-21 03:18 33.93096 -118.64925 6663 ft 271 kts 262°
2026-04-21 03:18 33.92922 -118.67194 7395 ft 274 kts 262°
2026-04-21 03:19 33.92755 -118.69482 8153 ft 276 kts 262°
2026-04-21 03:19 33.92583 -118.71803 8846 ft 280 kts 261°
2026-04-21 03:19 33.92404 -118.74144 9575 ft 283 kts 261°
2026-04-21 03:19 33.92220 -118.76514 10247 ft 287 kts 260°
2026-04-21 03:20 33.92022 -118.78999 10416 ft 310 kts 261°
2026-04-21 03:20 33.91809 -118.81633 10604 ft 328 kts 261°
2026-04-21 03:20 33.91713 -118.84452 11153 ft 337 kts 268°
2026-04-21 03:20 33.91810 -118.87278 11807 ft 340 kts 268°
2026-04-21 03:21 33.91897 -118.90091 12495 ft 342 kts 268°
2026-04-21 03:21 33.91983 -118.92958 13179 ft 344 kts 268°
2026-04-21 03:21 33.92068 -118.95848 13854 ft 346 kts 268°
2026-04-21 03:21 33.92175 -118.98746 14447 ft 350 kts 271°
2026-04-21 03:22 33.92663 -119.01654 15014 ft 359 kts 283°
2026-04-21 03:22 33.93676 -119.04448 15580 ft 370 kts 295°
2026-04-21 03:22 33.95042 -119.07094 16120 ft 375 kts 297°
2026-04-21 03:22 33.96433 -119.09771 16675 ft 378 kts 296°
2026-04-21 03:23 33.97828 -119.12468 17216 ft 381 kts 296°
2026-04-21 03:23 33.99231 -119.15194 17754 ft 384 kts 296°
2026-04-21 03:23 34.00800 -119.17838 18273 ft 394 kts 305°
2026-04-21 03:23 34.02784 -119.20160 18738 ft 404 kts 316°
2026-04-21 03:24 34.05070 -119.22147 19180 ft 409 kts 320°
2026-04-21 03:24 34.07400 -119.24130 19643 ft 411 kts 320°
2026-04-21 03:24 34.09742 -119.26134 20127 ft 413 kts 319°
2026-04-21 03:24 34.12084 -119.28145 20600 ft 415 kts 319°
2026-04-21 03:25 34.14441 -119.30176 21072 ft 417 kts 319°
2026-04-21 03:25 34.16805 -119.32217 21535 ft 419 kts 319°
2026-04-21 03:25 34.19175 -119.34265 21994 ft 421 kts 319°
2026-04-21 03:25 34.21563 -119.36326 22469 ft 423 kts 319°
2026-04-21 03:26 34.23960 -119.38392 22889 ft 425 kts 319°
2026-04-21 03:26 34.26382 -119.40481 23330 ft 428 kts 319°
2026-04-21 03:26 34.28807 -119.42576 23736 ft 430 kts 319°
2026-04-21 03:26 34.31239 -119.44680 24097 ft 431 kts 319°
2026-04-21 03:27 34.33684 -119.46794 24460 ft 433 kts 319°
2026-04-21 03:27 34.36086 -119.48873 24828 ft 434 kts 319°
2026-04-21 03:27 34.38599 -119.51054 25209 ft 435 kts 319°
2026-04-21 03:27 34.41020 -119.53246 25566 ft 434 kts 314°
2026-04-21 03:28 34.43182 -119.55768 25930 ft 432 kts 309°
2026-04-21 03:28 34.45277 -119.58358 26299 ft 433 kts 309°
2026-04-21 03:28 34.47377 -119.60948 26663 ft 434 kts 309°
2026-04-21 03:28 34.49478 -119.63533 27004 ft 436 kts 309°
2026-04-21 03:29 34.51613 -119.66161 27345 ft 437 kts 309°
2026-04-21 03:29 34.53751 -119.68789 27693 ft 439 kts 309°
2026-04-21 03:29 34.55896 -119.71426 28047 ft 440 kts 309°
2026-04-21 03:29 34.58053 -119.74081 28371 ft 442 kts 309°
2026-04-21 03:30 34.60204 -119.76741 28696 ft 443 kts 309°
2026-04-21 03:30 34.62367 -119.79420 29014 ft 444 kts 309°
2026-04-21 03:30 34.64532 -119.82096 29305 ft 446 kts 309°
2026-04-21 03:30 34.66715 -119.84791 29610 ft 448 kts 309°
2026-04-21 03:31 34.68899 -119.87494 29906 ft 449 kts 309°
2026-04-21 03:31 34.71092 -119.90215 30181 ft 451 kts 309°
2026-04-21 03:31 34.73285 -119.92941 30428 ft 453 kts 309°
2026-04-21 03:31 34.75493 -119.95688 30649 ft 455 kts 309°
2026-04-21 03:32 34.77707 -119.98440 30897 ft 456 kts 309°
2026-04-21 03:32 34.79923 -120.01194 31201 ft 455 kts 309°
2026-04-21 03:32 34.82133 -120.03939 31556 ft 454 kts 309°
2026-04-21 03:32 34.84339 -120.06683 31910 ft 453 kts 309°
2026-04-21 03:33 34.86537 -120.09422 32021 ft 451 kts 309°
2026-04-21 03:33 34.88699 -120.12112 32054 ft 439 kts 308°
2026-04-21 03:33 34.92925 -120.17388 32044 ft 434 kts 308°
2026-04-21 03:34 34.97136 -120.22666 32031 ft 434 kts 308°
2026-04-21 03:34 35.01333 -120.27935 32032 ft 433 kts 308°
2026-04-21 03:35 35.05539 -120.33218 32037 ft 434 kts 308°
2026-04-21 03:35 35.09733 -120.38453 32037 ft 435 kts 309°
2026-04-21 03:36 35.14162 -120.43513 32041 ft 438 kts 311°
2026-04-21 03:36 35.18716 -120.48471 32035 ft 438 kts 311°
2026-04-21 03:37 35.23240 -120.53456 32027 ft 437 kts 311°
2026-04-21 03:37 35.27714 -120.58492 32032 ft 438 kts 310°
2026-04-21 03:38 35.32189 -120.63562 32020 ft 438 kts 310°
2026-04-21 03:38 35.36674 -120.68623 32019 ft 439 kts 310°
2026-04-21 03:39 35.41164 -120.73683 32033 ft 439 kts 310°
2026-04-21 03:39 35.45656 -120.78763 32023 ft 439 kts 310°
2026-04-21 03:40 35.50326 -120.83653 32037 ft 446 kts 316°
2026-04-21 03:40 35.55283 -120.88241 32038 ft 446 kts 316°
2026-04-21 03:41 35.60239 -120.92835 32054 ft 447 kts 315°
2026-04-21 03:41 35.65193 -120.97449 32042 ft 447 kts 315°
2026-04-21 03:42 35.70160 -121.02081 32026 ft 448 kts 315°
2026-04-21 03:42 35.75136 -121.06725 32032 ft 449 kts 315°
2026-04-21 03:43 35.80120 -121.11370 32027 ft 450 kts 315°
2026-04-21 03:43 35.85112 -121.16030 32021 ft 450 kts 315°
2026-04-21 03:44 35.90098 -121.20711 32019 ft 450 kts 315°
2026-04-21 03:44 35.95078 -121.25396 32038 ft 451 kts 314°
2026-04-21 03:45 36.00064 -121.30088 32022 ft 451 kts 314°
2026-04-21 03:45 36.05110 -121.34852 31831 ft 463 kts 314°
2026-04-21 03:46 36.07725 -121.37178 30933 ft 475 kts 320°
2026-04-21 03:46 36.10563 -121.39373 30252 ft 476 kts 320°
2026-04-21 03:46 36.13362 -121.41540 29630 ft 473 kts 320°
2026-04-21 03:46 36.16110 -121.43674 29007 ft 470 kts 320°
2026-04-21 03:47 36.18864 -121.45822 28372 ft 467 kts 320°
2026-04-21 03:47 36.21604 -121.47969 27803 ft 463 kts 320°
2026-04-21 03:47 36.24314 -121.50094 27172 ft 462 kts 320°
2026-04-21 03:47 36.27011 -121.52212 26725 ft 456 kts 320°
2026-04-21 03:48 36.29695 -121.54321 26221 ft 454 kts 320°
2026-04-21 03:48 36.32350 -121.56401 25621 ft 452 kts 320°
2026-04-21 03:48 36.34994 -121.58469 25116 ft 448 kts 320°
2026-04-21 03:48 36.37612 -121.60515 24636 ft 443 kts 319°
2026-04-21 03:49 36.40208 -121.62549 24148 ft 440 kts 319°
2026-04-21 03:49 36.42785 -121.64576 23657 ft 437 kts 320°
2026-04-21 03:49 36.45341 -121.66594 23101 ft 434 kts 320°
2026-04-21 03:49 36.47876 -121.68595 22609 ft 429 kts 320°
2026-04-21 03:50 36.50390 -121.70578 22136 ft 424 kts 320°
2026-04-21 03:50 36.52840 -121.72509 21843 ft 413 kts 320°
2026-04-21 03:50 36.55254 -121.74414 21347 ft 409 kts 320°
2026-04-21 03:50 36.57652 -121.76311 20803 ft 407 kts 320°
2026-04-21 03:51 36.60032 -121.78199 20322 ft 405 kts 321°
2026-04-21 03:51 36.62405 -121.80084 19893 ft 403 kts 319°
2026-04-21 03:51 36.64771 -121.81968 19333 ft 404 kts 320°
2026-04-21 03:51 36.67145 -121.83859 18850 ft 404 kts 321°
2026-04-21 03:52 36.68712 -121.85105 18432 ft 407 kts 321°
2026-04-21 03:52 36.71134 -121.87030 18003 ft 403 kts 321°
2026-04-21 03:52 36.73504 -121.88771 17644 ft 402 kts 329°
2026-04-21 03:52 36.76143 -121.89984 17178 ft 406 kts 342°
2026-04-21 03:53 36.78936 -121.90763 16696 ft 405 kts 344°
2026-04-21 03:53 36.81645 -121.91510 16266 ft 402 kts 344°
2026-04-21 03:53 36.84365 -121.92264 15848 ft 399 kts 344°
2026-04-21 03:53 36.87061 -121.93011 15437 ft 396 kts 343°
2026-04-21 03:54 36.89743 -121.93759 15042 ft 393 kts 343°
2026-04-21 03:54 36.92393 -121.94500 14659 ft 389 kts 343°
2026-04-21 03:54 36.95032 -121.95247 14271 ft 386 kts 342°
2026-04-21 03:54 36.97621 -121.96097 13869 ft 383 kts 339°
2026-04-21 03:55 37.00159 -121.97057 13457 ft 380 kts 337°
2026-04-21 03:55 37.02658 -121.98070 13068 ft 376 kts 336°
2026-04-21 03:55 37.05130 -121.99093 12681 ft 372 kts 336°
2026-04-21 03:55 37.07579 -122.00099 12316 ft 369 kts 337°
2026-04-21 03:56 37.10011 -122.01081 11936 ft 366 kts 338°
2026-04-21 03:56 37.12427 -122.02039 11529 ft 363 kts 338°
2026-04-21 03:56 37.14803 -122.02967 11406 ft 352 kts 338°
2026-04-21 03:56 37.17114 -122.03861 11261 ft 343 kts 339°
2026-04-21 03:57 37.19358 -122.04728 11100 ft 333 kts 338°
2026-04-21 03:57 37.21555 -122.05582 10897 ft 327 kts 338°
2026-04-21 03:57 37.23708 -122.06426 10581 ft 322 kts 338°
2026-04-21 03:57 37.25830 -122.07264 10277 ft 318 kts 338°
2026-04-21 03:58 37.27939 -122.08096 9913 ft 317 kts 336°
2026-04-21 03:58 37.30037 -122.08924 9541 ft 316 kts 337°
2026-04-21 03:58 37.32107 -122.09742 9304 ft 306 kts 337°
2026-04-21 03:58 37.34096 -122.10525 9178 ft 293 kts 337°
2026-04-21 03:59 37.35997 -122.11266 9087 ft 279 kts 336°
2026-04-21 03:59 37.37824 -122.11975 8831 ft 271 kts 337°
2026-04-21 03:59 37.39630 -122.12636 8386 ft 273 kts 339°
2026-04-21 04:00 37.43430 -122.13952 6967 ft 286 kts 341°
2026-04-21 04:00 37.45314 -122.14583 6378 ft 281 kts 341°
2026-04-21 04:00 37.47212 -122.15218 5735 ft 276 kts 341°
2026-04-21 04:00 37.49036 -122.15832 5031 ft 266 kts 342°
2026-04-21 04:01 37.50770 -122.16419 4326 ft 256 kts 342°
2026-04-21 04:01 37.52450 -122.17098 3628 ft 244 kts 328°
2026-04-21 04:01 37.53710 -122.18362 3191 ft 219 kts 303°
2026-04-21 04:01 37.54476 -122.19888 2794 ft 203 kts 293°
2026-04-21 04:02 37.55113 -122.21417 2516 ft 191 kts 293°
2026-04-21 04:02 37.55709 -122.22842 2263 ft 176 kts 293°
2026-04-21 04:02 37.56262 -122.24160 2045 ft 167 kts 293°
2026-04-21 04:02 37.56798 -122.25433 1819 ft 160 kts 292°
2026-04-21 04:03 37.57302 -122.26628 1612 ft 151 kts 292°
2026-04-21 04:03 37.57783 -122.27781 1401 ft 148 kts 293°
2026-04-21 04:03 37.58263 -122.28919 1286 ft 147 kts 293°
2026-04-21 04:03 37.58733 -122.30062 1106 ft 147 kts 294°
2026-04-21 04:04 37.59198 -122.31201 905 ft 145 kts 294°
2026-04-21 04:04 37.59682 -122.32320 783 ft 146 kts 297°
2026-04-21 04:04 37.60151 -122.33448 570 ft 143 kts 296°
2026-04-21 04:04 37.60609 -122.34556 364 ft 143 kts 299°
2026-04-21 04:05 37.61088 -122.35658 140 ft 143 kts 299°
2026-04-21 04:05 37.61551 -122.36747 26 ft 133 kts 297°
2026-04-21 04:05 37.61899 -122.37567 18 ft 66 kts 298°
2026-04-21 04:05 37.62091 -122.38029 24 ft 55 kts 298°
2026-04-21 04:06 37.62173 -122.38268 22 ft 15 kts 263°
2026-04-21 04:06 37.62107 -122.38327 22 ft 10 kts 198°
2026-04-21 04:06 37.62050 -122.38350 23 ft 7 kts 192°
2026-04-21 04:06 37.62022 -122.38330 23 ft 3 kts 132°
2026-04-21 04:07 37.62009 -122.38305 24 ft 8 kts 120°
2026-04-21 04:07 37.61972 -122.38215 24 ft 12 kts 117°
2026-04-21 04:07 37.61933 -122.38121 23 ft 12 kts 117°
2026-04-21 04:07 37.61899 -122.38039 22 ft 9 kts 120°
2026-04-21 04:08 37.61857 -122.37987 22 ft 10 kts 148°
2026-04-21 04:08 37.61772 -122.37947 19 ft 15 kts 169°
2026-04-21 04:08 37.61671 -122.37960 18 ft 15 kts 202°
2026-04-21 04:08 37.61579 -122.38019 14 ft 14 kts 208°
2026-04-21 04:09 37.61529 -122.38103 14 ft 11 kts 254°
2026-04-21 04:09 37.61518 -122.38165 15 ft 2 kts 257°
2026-04-21 04:09 37.61516 -122.38176 15 ft 0 kts 257°